Погода в Тернополе

Погода в Тернополе : погода сейчас, прогноз погоды и архив. Всё, что Вы хотите узнать о погоде в Тернополе!

Хотите узнать прогноз погоды в Тернополе? Тогда Вам сюда: Погода в Тернополе

Поиск расширенной информации на нашем сайте:

Другие новости

Новости СМИ2

Главная страница сайта

Новости сайта

02.10.2013

Напоминаем, что на нашем новом сайте вы можете получить высокодетализированные прогнозы погоды по пунктам России, СНГ и мира (включающие важные для авиации метеовеличины, такие как направление и скорость ветра, видимость, явления погоды, количество и форма облачности, нижняя и верхняя граница облачности), а также ознакомиться с разнообразными материалами по авиационной метеорологии и подборкой полезных ссылок на эту тему.

Сайт Метеоцентр.Азия посвящён разработке технологий оптимизации авиаметеорологического обслуживания, включая проектирование и перспективное создание нескольких автоматизированных авиаметеорологических систем:
- система выпуска высокодетальных прогностических карт явлений погоды для нижнего воздушного пространства по России и ближнему зарубежью;
- система верификации прогнозов TAF (выпускаемых синоптиками официальных АМСГ РФ и ближнего зарубежья) и AUTOTAF (выпускаемых сайтом Метеоцентр.Азия) - выявление ошибок, онлайн-сопоставление с фактической погодой METAR, автоматическое внесение коррективов в прогнозы при резком отклонении фактической погоды от прогноза, подсчёт оправдываемости прогнозов по элементам и в целом;
- система обработки, анализа и отображения авиаметеорологической информации для применения провайдерами метеорологической информации.


Погода в Тернополе - сегодня

Время (UTC), дата Ветер
(°,м/с) 
Видим.   Явления Облачность Т
(°С)
Тd
(°С)
f(%) Тe
(°С)
Pmin
(гПа)
dP
(гПа)
Po
(мм)
O2
(г/м3)
Тmin Tmax R s Состояние
почвы
00 25.04.17 120 (ЮВ) 10 км    ясно 
-0.1 -3.4 78 +1  1018.9  -0.5  734  296           
03 25.04.17 140 (ЮВ) 10 км    3/0 верхняя 
[Ci fib]
-0.9 -3.3 84 -2  1018.5  -0.5  733  297           
06 25.04.17 170 (Ю) 20000 м    5/0 верхняя 
[Ci fib]
+4.8 -0.4 69 +2  1017.2  -0.4  733  290  -1         
09 25.04.17 170 (Ю) 20000 м    6/0 средняя, верхняя 
[Ac trans|Ci fib]
+13.5 -3.7 30 +13  1014.7  -1.2  732  281           
12 25.04.17 180 (Ю) 10  20000 м    6/3 1000 м верхняя 
[Cu hum|Ci fib]
+17 -3.8 24 +16  1012.2  -2  731  277           
15 25.04.17 190 (Ю) 20000 м    8/3 1000 м верхняя 
[Cu hum|Ci fib]
+18.2 -0.5 28 +18  1010  -1.9  729  275           
18 25.04.17 210 (ЮЗ) 10 км    8/0 средняя, верхняя 
[Ac trans|Ci fib]
+15.2 +1.1 38 +15  1011.1  0.7  730  278    +18.4       
21 25.04.17 180 (Ю) 10 км    ясно 
+10.1 +1.9 57 +9  1012.2  0.4  730  283           
00 26.04.17 160 (Ю) 10 км    ясно 
+8.9 +1.8 61 +7  1011.9  -0.5  730  284           
03 26.04.17 160 (Ю) 10 км    4/0 средняя 
[Ac trans]
+7.4 +2.2 70 +6  1011.8  -0.3  729  286           
06 26.04.17 150 (ЮВ) 10 км    8/0 средняя, верхняя 
[Ac trans|Ci]
+11.5 +2.9 55 +10  1012.2  730  282  +7.2         
09 26.04.17 210 (ЮЗ) 20000 м    9/3 1000 м верхняя 
[Cu hum|Cs]
+18.7 +1.7 32 +19  1011.3  730  275           
12 26.04.17 210 (ЮЗ) 20000 м    8/4 1000 м верхняя 
[Sc diur, vesp|Cs]
+19.9 +0.8 28 +20  1010.9  -0.2  730  274           
15 26.04.17 200 (Ю) 20000 м    9/3 1000 м верхняя 
[Sc diur, vesp|Cs]
+19.3 +1.5 30 +19  1011  730  274           
18 26.04.17 190 (Ю) 20000 м    9/0 средняя, верхняя 
[As trans|Cs]
+14.9 +3.1 45 +15  1011.6  730  278    +20.6       
21 26.04.17 160 (Ю) 10 км    10/0 средняя 
[As op]
+13.9 +6.1 59 +13  1011.8  0.1  730  279           
00 27.04.17 160 (Ю) 10 км    10/3 1500 м средняя 
[Sc|As op]
+11.1 +7 76 +11  1011.8  -0.3  730  281           
03 27.04.17 150 (ЮВ) 10 км    6/1 1500 м средняя, верхняя 
[Sc|Ac As|Cs]
+9.1 +7.4 89 +9  1012.1  730  283           
06 27.04.17 160 (Ю) 20000 м    5/0 средняя, верхняя 
[Ac As|Ci]
+14 +6.9 62 +13  1011.7  0.2  730  279  +9         
09 27.04.17 200 (Ю) 20000 м    9/0 средняя, верхняя 
[Ac trans|Ci fib]
+21.2 +6.4 38 +21  1010.5  -0.2  730  272           
12 27.04.17 210 (ЮЗ) 20000 м    9/4 1000 м верхняя 
[Sc|Ci fib]
+22.7 +4.8 31 +23  1009.9  -0.4  729  271           
15 27.04.17 220 (ЮЗ) 10 км    9/6 1000 м верхняя 
[Sc|Ci fib]
+21 +5 35 +21  1010.7  0.6  730  272           
18 27.04.17 090 (В) 10 км    9/6 1000 м кучево-дожд., средняя 
[Cb cap|Ac trans]
+16.7 +7 53 +17  1011.6  0.3  730  276    +23.6       
21 27.04.17 010 (С) 10 км    8/0 средняя 
[Ac trans]
+14.6 +7.6 63 +15  1012.8  0.9  731  278           
00 28.04.17 020 (С) 10 км    9/4 1000 м средняя 
[Sc|Ac trans]
+11.4 +7.7 78 +12  1012.5  -0.7  730  281           
Время (UTC), дата Ветер
(°,м/с) 
Видим.   Явления Облачность Т
(°С)
Тd
(°С)
f(%) Тe
(°С)
Pmin
(гПа)
dP
(гПа)
Po
(мм)
O2
(г/м3)
Тmin Tmax R s Состояние
почвы

Для получения пояснительной информации подведите курсор к названию столбца.

ПОГОДА в Тернополе - архив

Всё, что Вы хотите узнать о погоде в Тернополе - удобно и подробно!

Выберите нужную дату (начиная с 1 января 2015* года) и нажмите кнопку "Найти".
Будут отображены архивные сводки погоды по пункту Тернополь, начиная с указанной даты.


Отображать данные в формате CSV (для использования в таблицах Excel)


Внимание! Наш архив погоды предназначен исключительно для личного некоммерческого использования в познавательных целях. Если Вам необходимы официальные справки о состоянии погоды (для производственных, юридических, коммерческих и т.п. целей), обращайтесь в органы Росгидромета.

*Примечание: данная дата относится к архиву по метеостанциям СССР (Россия, СНГ, Балтия).
Архив по метеостанциям Зарубежной Европы и Азии (кроме Китая) хранится 10 дней, по другим регионам земного шара (Китай, Африка, Америка, Австралия, Океания) - 1 день.

Тернополь - район местоположения метеостанции


Название, широта, долгота, высота метеостанции:
Тернополь 49.5°ш. 25.7°д. 329 м над ур. моря [Украина]

Дополнительная информация

В oтличие oт бoльшинства пoгoдных сайтoв мы публикуем пoдрoбную метеoинфoрмацию в детальнoм прoфессиoнальнoм фoрмате.

Характеристики температуры и влажнoсти вoздуха измеряются на высoте 2 м в тени вдали oт зданий и деревьев.
Скoрoсть ветра измеряется на высoте 10 м (на урoвне рoста челoвека скoрoсть ветра ниже в 1.5-2 раза). Если метеoстанция нахoдится в гoрoде или в лесу, тo скoрoсть ветра занижена на 2-4 м/с пo сравнению с oткрытым местoм. Скoрoсть ветра над акватoриями крупных рек и oзёр, а также на вершинах хoлмoв на 2-5 м/с выше, чем в oбычных услoвиях.
Атмoсфернoе давление в разных тoчках местнoсти мoжет значительнo oтличаться oт давления на метеoстанции, в зависимoсти oт услoвий рельефа (при пoдъёме на 10 м давление пoнижается примернo на 1 мм рт.ст.).